Printer-friendly version

IAU Minor Planet Center

Minor Planet Center

MPEC 2003-H50 : 2003 HP32

The following Minor Planet Electronic Circular may be linked-to from your own Web pages, but must not otherwise be redistributed electronically.


Read MPEC 2003-H49 Read MPEC 2003-H51


M.P.E.C. 2003-H50                                Issued 2003 Apr. 30, 17:40 UT

     The Minor Planet Electronic Circulars contain information on unusual
         minor planets and routine data on comets.  They are published
   on behalf of Commission 20 of the International Astronomical Union by the
          Minor Planet Center, Smithsonian Astrophysical Observatory,
                          Cambridge, MA 02138, U.S.A.

             Prepared using the Tamkin Foundation Computer Network

                              MPC@CFA.HARVARD.EDU
          URL http://cfa-www.harvard.edu/iau/mpc.html  ISSN 1523-6714

                                   2003 HP32

Observations:
     K03H32P* C2003 04 26.30890 14 25 08.73 -10 54 11.3          21.0 V      691
     K03H32P  C2003 04 26.33559 14 25 05.84 -10 53 52.5          21.4 V      691
     K03H32P  C2003 04 26.36321 14 25 02.88 -10 53 33.2          21.2 V      691
     K03H32P  C2003 04 28.24782 14 21 42.18 -10 31 03.6          21.7 V      291
     K03H32P  C2003 04 28.25590 14 21 41.26 -10 30 57.2          21.4 V      291
     K03H32P  C2003 04 28.26312 14 21 40.39 -10 30 52.2          20.7 V      291
     K03H32P  C2003 04 28.31532 14 21 34.67 -10 30 14.2          20.9 R      926
     K03H32P  C2003 04 28.31855 14 21 34.24 -10 30 11.3          20.6 R      926
     K03H32P  C2003 04 28.32179 14 21 33.88 -10 30 09.0          20.4 R      926
     K03H32P  C2003 04 29.23462 14 19 53.61 -10 18 55.1          20.6 V      291
     K03H32P  C2003 04 29.24011 14 19 53.03 -10 18 50.4          21.1 V      291
     K03H32P  C2003 04 29.24428 14 19 52.55 -10 18 47.1          20.9 V      291
     K03H32P  C2003 04 30.20250 14 18 05.25 -10 06 46.6          20.5 R      651
     K03H32P  C2003 04 30.20451 14 18 04.96 -10 06 44.9          20.4 R      651
     K03H32P HC2003 04 30.25742 14 17 58.81 -10 06 04.4          21.9 V      291
     K03H32P HC2003 04 30.26142 14 17 58.37 -10 06 00.6          21.7 V      291
     K03H32P HC2003 04 30.31211 14 17 52.43 -10 05 23.1          21.9 V      291
     K03H32P HC2003 04 30.31596 14 17 51.99 -10 05 19.9          22.0 V      291
     K03H32P  C2003 04 30.31997 14 17 51.53 -10 05 16.6          21.2 V      291
     K03H32P  C2003 04 30.32389 14 17 51.10 -10 05 13.9          20.8 V      291
     K03H32P  C2003 04 30.32783 14 17 50.61 -10 05 10.9          20.9 V      291

Observer details:
291 LPL/Spacewatch II.  Observer M. Block.  1.8-m f/2.7 reflector + CCD.
651 Grasslands Observatory, Tucson.  Observer J. E. McGaha.  0.62-m f/5.1
    Newtonian + CCD.
691 Steward Observatory, Kitt Peak.  Observer J. A. Larsen.  0.9-m f/3
    reflector + CCD.
926 Tenagra II Observatory.  Observers P. R. Holvorcem, M. Schwartz.  0.81-m
    f/7 Ritchey-Chretien + CCD.

Orbital elements:
2003 HP32
Epoch 2003 Apr. 11.0 TT = JDT 2452740.5                 MPC
M 332.90733              (2000.0)            P               Q
n   0.19186224     Peri.  154.64143     +0.96288928     +0.26967796
a   2.9772116      Node   189.73225     -0.25728328     +0.90498328
e   0.8102576      Incl.    3.68492     -0.08154477     +0.32905783
P   5.14           H   19.4           G   0.15
From 21 observations 2003 Apr. 26-30.

Ephemeris:
2003 HP32                a,e,i = 2.98, 0.81, 4                   q = 0.5649
Date    TT    R. A. (2000) Decl.     Delta      r     Elong.  Phase     V
2003 05 01    14 16.57   -09 56.5    0.972    1.977   173.9     3.1    21.1
2003 05 11    13 56.04   -07 38.1    0.885    1.864   159.4    11.0    21.2
2003 05 21    13 34.17   -05 09.3    0.825    1.748   144.0    19.9    21.2
2003 05 31    13 13.32   -02 46.7    0.788    1.627   128.7    29.1    21.2
2003 06 10    12 55.55   -00 45.5    0.767    1.503   114.3    38.0    21.2
2003 06 20    12 41.90   +00 47.3    0.751    1.374   101.0    46.5    21.2
2003 06 30    12 32.34   +01 52.6    0.732    1.241    88.9    55.0    21.2
2003 07 10    12 25.95   +02 37.4    0.703    1.105    77.6    63.9    21.1
2003 07 20    12 20.72   +03 15.6    0.658    0.968    66.7    74.7    21.0
2003 07 30    12 12.88   +04 09.8    0.594    0.832    55.0    89.1    21.0

Kyle E. Smalley              (C) Copyright 2003 MPC           M.P.E.C. 2003-H50

Read MPEC 2003-H49 Read MPEC 2003-H51


Our Web policy. Index to the CBAT/MPC/ICQ pages.


Valid HTML 4.01!